{"data":{"norad_id":48276,"epoch":"2026-05-25T03:37:59.232864Z","epoch_age_seconds":58587,"freshness":"FRESH","line1":"1 48276U 21036A   26145.15138001  .00002863  00000+0  10394-3 0  9994","line2":"2 48276  53.1611  55.3011 0001254  94.8239 265.2905 15.31713037280457","mean_motion":15.31713037,"eccentricity":0.0001254,"inclination_deg":53.1611,"raan_deg":55.3011,"arg_perigee_deg":94.8239,"mean_anomaly_deg":265.2905,"bstar":0.00010394,"rev_number":28045,"period_min":94.012387778612,"perigee_km":469.84228858082,"apogee_km":471.55997718455,"semimajor_km":6848.8381328827,"source":"CELESTRAK","updated_at":"2026-05-25T13:38:16.652567Z"}}